Regional Weather Roundup
Issued by NWS Green Bay, WI

Home | Current Version | Previous Version | Graphics & Text | Print | Product List | Glossary Off
Versions: 1 2 3 4 5 6 7 8 9 10 11 12 13 14 15 16 17 18 19 20 21 22 23 24 25 26 27 28 29 30 31 32 33 34 35 36 37 38 39 40 41 42 43 44 45 46 47 48 49 50

889
ASUS43 KGRB 211911
RWRGRB

NORTH-CENTRAL AND NORTHEAST WISCONSIN REGIONAL WEATHER ROUNDUP
NATIONAL WEATHER SERVICE GREEN BAY WI
200 PM CDT SAT OCT 21 2017

WIZ005-009-010>012-018-019-212000-
NORTH CENTRAL WISCONSIN

CITY           SKY/WX    TMP DP  RH WIND       PRES   REMARKS
IRONWOOD       CLOUDY    63  56  78 S14G24    29.74F
MANITOWISH WTR CLOUDY    59  59 100 SE13      29.79F
ARBOR VITAE    CLOUDY    64  56  75 S12G22    29.82F
EAGLE RIVER    NOT AVBL
LAND O LAKES   CLOUDY    65  55  68 S7G17     29.83F
RHINELANDER    CLOUDY    64  57  78 S10       29.85F
PHILLIPS       PTSUNNY   64  58  82 S14G22    29.80F
ANTIGO         CLOUDY    69  56  62 S14       29.86F
TOMAHAWK       PTSUNNY   67  55  66 SE9       29.83F
MERRILL        CLOUDY    66  57  71 SW9       29.85F
$$

WIZ013-073-212000-
NORTHEAST WISCONSIN

CITY           SKY/WX    TMP DP  RH WIND       PRES   REMARKS
IRON MOUNTAIN  PTSUNNY   72  52  49 S14       29.86R
MARINETTE      NOT AVBL
OCONTO         SUNNY     71  53  52 SE12      29.89F
$$

WIZ017-030-035>037-045-212000-
CENTRAL WISCONSIN

CITY           SKY/WX    TMP DP  RH WIND       PRES   REMARKS
MEDFORD        CLOUDY    64  55  71 S18G25    29.83S
WAUSAU         PTSUNNY   69  56  62 S6        29.83F
MOSINEE        PTSUNNY   72  57  60 SW9       29.86F
MARSHFIELD     CLOUDY    67  55  65 S15G21    29.84F
WISC RAPIDS    SUNNY     75  58  55 S10       29.86S
STEVENS POINT  SUNNY     71  54  54 S14G20    29.86S
WAUPACA        SUNNY     76  55  48 S14       29.88S
SHAWANO        SUNNY     76  54  47 S12G18    29.87F
CLINTONVILLE   SUNNY     73  54  49 S17       29.87F
WAUTOMA        SUNNY    N/A N/A N/A S10G21    29.87F
$$

WIZ038-039-048-051-212000-
FOX VALLEY

CITY           SKY/WX    TMP DP  RH WIND       PRES   REMARKS
NWS GREEN BAY  SUNNY     74  55  51 S8        29.90F
APPLETON       NOT AVBL
OSHKOSH        SUNNY     73  57  57 S16       29.90F
FOND DU LAC    SUNNY     75  53  46 S17G25    29.91F
$$

WIZ022-050-052-212000-
EAST CENTRAL WISCONSIN

CITY           SKY/WX    TMP DP  RH WIND       PRES   REMARKS
EPHRAIM        FAIR      63  52  67 S16G23    29.93F
WASHINGTON ISL FAIR      61  54  77 S15G24    29.94F
STURGEON BAY   SUNNY     63  53  70 S22G29    29.93F
MANITOWOC      SUNNY     62  53  72 S20G26    29.95F
SHEBOYGAN      SUNNY     66  56  70 S14G22    29.95F
$$

LMZ563-521-522-541>543-212000-
LAKESHORE

STATION/POSITION TIME  TEMP    WIND        PRES    VSBY  WAVE
                       AIR SEA DIR/SP/G                  HT/PER
                 (UTC) (F)     (DEG/KT/KT) (MB)    (MI)  (FT/S)
SHEBOYGAN LKSHOR 1900   55     180/ 19/ 20 1014.1F
KEWAUNEE LKSHORE 1842   54     180/ 10/ 14 1013.5F
NORTHPORT PIER   1840   61     160/ 12/ 22 1013.9F
N MID LAKE BUOY  1850   61 58  180/ 21/ 25 1015.0F         6/ 6
S GREEN BAY BUOY 1830   64 59  150/  8/ 10 1012.8F
SISTER BAY LKSHO 1819   65     180/ 25/ 31   N/A
MENOMINEE LKSHOR 1842   60     140/ 13/ 15 1012.7F
$$




USA.gov is the U.S. government's official web portal to all federal, state and local government web resources and services.